Powrót do katalogu

HELIOS 1B

AktywnyMilitariaSSO
NORAD 25977·PAYLOAD·🇫🇷 France

Wystrzelony Dec 3, 1999 z Guiana Space Centre

Loading…

Następne Przeloty (najbliższe 24 godziny)

TLE

ŚwieżeSource: Space-Track

Epoka: Sep 14, 2026, 04:55 UTC

1 25977U 99064A   26257.20487973  .00000961  00000-0  11052-3 0  9998
2 25977  98.1515 164.8855 0001903 118.7774 241.3633 14.88198979713294

Śledź HELIOS 1B w czasie rzeczywistym z AllMySat

Download on the App Store